Meteo pe oră la Dabrowka

Astăzi, 23 Aprilie, Vineri

Timp Temperatura Precipitaţii Vânt Presiune Umiditate
00:00 +1°C° 0 mm 3 m/s 756 mmHg 87%
01:00 0°C° 0 mm 3 m/s 756 mmHg 91%
02:00 -1°C° 0 mm 4 m/s 756 mmHg 93%
03:00 -1°C° 0 mm 4 m/s 756 mmHg 95%
04:00 -1°C° 0 mm 4 m/s 757 mmHg 97%
05:00 0°C° 0 mm 4 m/s 757 mmHg 93%
06:00 +1°C° 0 mm 5 m/s 757 mmHg 90%
07:00 +1°C° 0 mm 5 m/s 758 mmHg 86%
08:00 +2°C° 0 mm 5 m/s 758 mmHg 85%
09:00 +2°C° 0 mm 6 m/s 758 mmHg 83%
10:00 +3°C° 0 mm 6 m/s 758 mmHg 81%
11:00 +3°C° 0.1 mm 6 m/s 758 mmHg 78%
12:00 +4°C° 0.1 mm 6 m/s 759 mmHg 75%
13:00 +4°C° 0.1 mm 6 m/s 759 mmHg 72%
14:00 +6°C° 0.2 mm 5 m/s 759 mmHg 70%
15:00 +6°C° 0.2 mm 5 m/s 758 mmHg 69%
16:00 +7°C° 0.2 mm 4 m/s 758 mmHg 67%
17:00 +6°C° 0.1 mm 4 m/s 758 mmHg 67%
18:00 +5°C° 0.1 mm 3 m/s 759 mmHg 66%
19:00 +4°C° 0.1 mm 3 m/s 759 mmHg 66%
20:00 +5°C° 0 mm 2 m/s 759 mmHg 65%
21:00 +4°C° 0 mm 2 m/s 759 mmHg 64%
22:00 +4°C° 0 mm 1 m/s 759 mmHg 63%
23:00 +4°C° 0 mm 1 m/s 759 mmHg 64%

Mâine, 24 Aprilie, Sâmbătă

Timp Temperatura Precipitaţii Vânt Presiune Umiditate
00:00 +2°C° 0 mm 2 m/s 759 mmHg 66%
01:00 +2°C° 0 mm 2 m/s 759 mmHg 67%
02:00 +2°C° 0 mm 2 m/s 759 mmHg 73%
03:00 +1°C° 0 mm 2 m/s 759 mmHg 79%
04:00 0°C° 0 mm 3 m/s 759 mmHg 84%
05:00 +1°C° 0 mm 3 m/s 759 mmHg 82%
06:00 +2°C° 0 mm 3 m/s 759 mmHg 81%
07:00 +3°C° 0 mm 3 m/s 759 mmHg 79%
08:00 +4°C° 0.1 mm 3 m/s 759 mmHg 74%
09:00 +6°C° 0.1 mm 4 m/s 759 mmHg 69%
10:00 +7°C° 0.1 mm 4 m/s 759 mmHg 64%
11:00 +8°C° 0.2 mm 5 m/s 758 mmHg 62%
12:00 +8°C° 0.2 mm 5 m/s 758 mmHg 60%
13:00 +8°C° 0.2 mm 5 m/s 758 mmHg 58%
14:00 +8°C° 0.1 mm 5 m/s 758 mmHg 56%
15:00 +8°C° 0.1 mm 6 m/s 758 mmHg 54%
16:00 +9°C° 0.1 mm 6 m/s 758 mmHg 53%
17:00 +7°C° 0.1 mm 5 m/s 758 mmHg 58%
18:00 +6°C° 0.1 mm 4 m/s 758 mmHg 63%
19:00 +5°C° 0.1 mm 4 m/s 758 mmHg 69%
20:00 +3°C° 0 mm 3 m/s 759 mmHg 67%
21:00 +2°C° 0 mm 3 m/s 759 mmHg 66%
22:00 +1°C° 0 mm 3 m/s 759 mmHg 64%
23:00 0°C° 0 mm 3 m/s 759 mmHg 66%

Poimâine, 25 Aprilie, Duminică

Timp Temperatura Precipitaţii Vânt Presiune Umiditate
00:00 -1°C° 0 mm 2 m/s 759 mmHg 68%
01:00 -2°C° 0 mm 2 m/s 759 mmHg 70%
02:00 -2°C° 0 mm 2 m/s 759 mmHg 72%
03:00 -2°C° 0 mm 3 m/s 759 mmHg 73%
04:00 -2°C° 0 mm 3 m/s 759 mmHg 75%
05:00 -1°C° 0 mm 3 m/s 759 mmHg 71%
06:00 +1°C° 0 mm 3 m/s 759 mmHg 68%
07:00 +1°C° 0 mm 4 m/s 760 mmHg 64%
08:00 +4°C° 0 mm 4 m/s 759 mmHg 55%
09:00 +5°C° 0 mm 5 m/s 759 mmHg 46%
10:00 +7°C° 0 mm 5 m/s 759 mmHg 37%
11:00 +7°C° 0 mm 6 m/s 759 mmHg 36%
12:00 +8°C° 0 mm 6 m/s 759 mmHg 35%
13:00 +8°C° 0 mm 6 m/s 759 mmHg 35%
14:00 +8°C° 0 mm 6 m/s 759 mmHg 38%
15:00 +8°C° 0 mm 6 m/s 759 mmHg 41%
16:00 +7°C° 0 mm 6 m/s 759 mmHg 44%
17:00 +6°C° 0 mm 5 m/s 759 mmHg 50%
18:00 +4°C° 0 mm 4 m/s 759 mmHg 55%
19:00 +3°C° 0 mm 3 m/s 759 mmHg 60%
20:00 +2°C° 0 mm 3 m/s 759 mmHg 60%
21:00 +2°C° 0 mm 2 m/s 759 mmHg 61%
22:00 +1°C° 0 mm 2 m/s 759 mmHg 61%
23:00 +1°C° 0 mm 2 m/s 759 mmHg 63%

26 Aprilie, Luni

Timp Temperatura Precipitaţii Vânt Presiune Umiditate
00:00 -1°C° 0 mm 2 m/s 758 mmHg 65%
01:00 -1°C° 0 mm 2 m/s 758 mmHg 67%
02:00 -1°C° 0 mm 2 m/s 758 mmHg 71%
03:00 -1°C° 0 mm 2 m/s 758 mmHg 74%
04:00 -2°C° 0 mm 2 m/s 757 mmHg 77%
05:00 0°C° 0 mm 3 m/s 757 mmHg 73%
06:00 +1°C° 0 mm 3 m/s 757 mmHg 68%
07:00 +2°C° 0 mm 3 m/s 757 mmHg 63%
08:00 +4°C° 0 mm 3 m/s 757 mmHg 55%
09:00 +5°C° 0 mm 3 m/s 757 mmHg 48%
10:00 +8°C° 0 mm 3 m/s 757 mmHg 40%
11:00 +8°C° 0 mm 3 m/s 756 mmHg 40%
12:00 +9°C° 0 mm 3 m/s 756 mmHg 39%
13:00 +8°C° 0 mm 4 m/s 756 mmHg 39%
14:00 +8°C° 0 mm 4 m/s 755 mmHg 40%
15:00 +8°C° 0 mm 4 m/s 755 mmHg 41%
16:00 +8°C° 0 mm 4 m/s 755 mmHg 42%
17:00 +8°C° 0 mm 3 m/s 755 mmHg 47%
18:00 +5°C° 0 mm 3 m/s 755 mmHg 52%
19:00 +5°C° 0 mm 2 m/s 755 mmHg 57%
20:00 +4°C° 0 mm 2 m/s 755 mmHg 58%
21:00 +3°C° 0 mm 2 m/s 755 mmHg 59%
22:00 +2°C° 0 mm 2 m/s 755 mmHg 60%
23:00 +1°C° 0 mm 2 m/s 755 mmHg 61%

27 Aprilie, Marţi

Timp Temperatura Precipitaţii Vânt Presiune Umiditate
00:00 +2°C° 0 mm 1 m/s 755 mmHg 63%
01:00 +1°C° 0 mm 1 m/s 754 mmHg 64%
02:00 +1°C° 0 mm 1 m/s 754 mmHg 64%
03:00 +1°C° 0 mm 1 m/s 754 mmHg 65%
04:00 +1°C° 0 mm 1 m/s 754 mmHg 66%
05:00 +2°C° 0 mm 1 m/s 753 mmHg 62%
06:00 +3°C° 0 mm 2 m/s 753 mmHg 58%
07:00 +4°C° 0 mm 2 m/s 753 mmHg 55%
08:00 +6°C° 0 mm 2 m/s 753 mmHg 52%
09:00 +7°C° 0 mm 2 m/s 753 mmHg 49%
10:00 +8°C° 0 mm 3 m/s 753 mmHg 46%
11:00 +9°C° 0 mm 3 m/s 752 mmHg 44%
12:00 +10°C° 0 mm 3 m/s 751 mmHg 43%
13:00 +10°C° 0 mm 3 m/s 751 mmHg 42%
14:00 +10°C° 0 mm 3 m/s 750 mmHg 44%
15:00 +10°C° 0 mm 4 m/s 750 mmHg 47%
16:00 +10°C° 0 mm 4 m/s 749 mmHg 49%
17:00 +8°C° 0 mm 4 m/s 749 mmHg 53%
18:00 +7°C° 0 mm 4 m/s 749 mmHg 57%
19:00 +6°C° 0 mm 4 m/s 749 mmHg 60%
20:00 +7°C° 0 mm 3 m/s 748 mmHg 60%
21:00 +5°C° 0 mm 3 m/s 748 mmHg 60%
22:00 +5°C° 0 mm 3 m/s 748 mmHg 60%
23:00 +4°C° 0.4 mm 3 m/s 748 mmHg 68%

28 Aprilie, Miercuri

Timp Temperatura Precipitaţii Vânt Presiune Umiditate
00:00 +4°C° 0.4 mm 3 m/s 747 mmHg 75%
01:00 +4°C° 0.4 mm 3 m/s 747 mmHg 82%
02:00 +4°C° 0.7 mm 3 m/s 746 mmHg 86%
03:00 +3°C° 0.7 mm 3 m/s 746 mmHg 89%
04:00 +3°C° 0.7 mm 4 m/s 745 mmHg 92%
05:00 +4°C° 0.3 mm 4 m/s 745 mmHg 89%
06:00 +4°C° 0.3 mm 4 m/s 745 mmHg 87%
07:00 +4°C° 0.3 mm 4 m/s 745 mmHg 85%
08:00 +5°C° 0 mm 4 m/s 745 mmHg 83%
09:00 +5°C° 0 mm 4 m/s 745 mmHg 80%
10:00 +6°C° 0 mm 4 m/s 745 mmHg 78%
11:00 +6°C° 0.1 mm 4 m/s 745 mmHg 81%
12:00 +7°C° 0.1 mm 3 m/s 745 mmHg 84%
13:00 +5°C° 0.1 mm 3 m/s 746 mmHg 87%
14:00 +5°C° 0.1 mm 3 m/s 746 mmHg 89%
15:00 +6°C° 0.1 mm 2 m/s 746 mmHg 90%
16:00 +6°C° 0.1 mm 2 m/s 746 mmHg 91%
17:00 +6°C° 0.1 mm 2 m/s 746 mmHg 92%
18:00 +6°C° 0.1 mm 2 m/s 747 mmHg 93%
19:00 +5°C° 0.1 mm 2 m/s 747 mmHg 94%
20:00 +5°C° 0.2 mm 2 m/s 747 mmHg 94%
21:00 +5°C° 0.2 mm 2 m/s 747 mmHg 95%
22:00 +5°C° 0.2 mm 2 m/s 748 mmHg 95%
23:00 +5°C° 0 mm 2 m/s 748 mmHg 95%
Arată mai mult

Formular de consimțământ

Meteoprog și furnizorii noștri de servicii pot stoca și accesa date personale, precum cookies, identificatori de dispozitiv sau alte tehnologii similare pe dispozitivul dumneavoastră și procesa astfel de date pentru a personaliza conținutul și reclamele, dar și pentru a oferi caracteristici de social media și pentru a analiza traficul.

  • Stocarea și/sau accesarea informațiilor pe dispozitivul dumneavoastră

    Cookies, identificatori de dispozitiv sau alte informații pot fi stocate sau accesate pe dispozitiv în scopurile indicate mai sus.

  • Reclame și conținut personalizat, evaluarea reclamelor și a conținutului, informații despre audiențe și dezvoltarea produselor

    Reclamele și conținutul pot fi personalizate pe baza unui profil. Pot fi adăugate date suplimentare pentru a personaliza mai bine reclamele și conținutul. Performanța reclamelor și conținutului poate fi măsurată. Pot fi obținute informații despre utilizatorii care au văzut reclamele și conținutul. Aceste date pot fi utilizate pentru a dezvolta sau îmbunătăți experiența utilizatorilor, sistemele și software-ul.

Dând clic pe ‘Sunt de acord’, permiteți utilizarea cookie-urilor menționate, a identificatorilor de dispozitiv, balizelor web sau altor tehnologii similare. Setările pot fi modificate din browser-ul dispozitivului dumneavoastră.

În anumite scopuri, interesele legitime pot prima asupra consimțământului. Puteți citi mai multe informații în acest sens în Politica privind Confidențialitatea Datelor și Cookie.